This is the latest recevied weather packets stored in our database for station/object KC5DP. If no packets are shown the sender has not sent any weather packets the latest 10 day(s).
| Time | Temp. | Humidity | Pressure | Rain* | Wind** | Luminosity | Snow |
|---|---|---|---|---|---|---|---|
| 1777940356 | 21.11° C | 59% | 1012.5 hPa | 0 mm | - | 15 W/m² | - |
| 1777940053 | 21.67° C | 59% | 1012.5 hPa | 0 mm | - | 18 W/m² | - |
| 1777939750 | 21.67° C | 60% | 1012.7 hPa | 0 mm | - | 18 W/m² | - |
| 1777939448 | 21.67° C | 58% | 1012.6 hPa | 0 mm | - | 19 W/m² | - |
| 1777939144 | 21.67° C | 56% | 1012.6 hPa | 0 mm | - | 20 W/m² | - |
| 1777938841 | 22.22° C | 56% | 1012.7 hPa | 0 mm | - | 18 W/m² | - |
| 1777938537 | 22.22° C | 55% | 1012.5 hPa | 0 mm | - | 23 W/m² | - |
| 1777938235 | 22.78° C | 55% | 1012.7 hPa | 0 mm | - | 34 W/m² | - |
| 1777937932 | 22.78° C | 55% | 1012.8 hPa | 0 mm | - | 31 W/m² | - |
| 1777937627 | 22.78° C | 53% | 1012.7 hPa | 0 mm | - | 33 W/m² | - |
| 1777937324 | 23.33° C | 53% | 1012.8 hPa | 0 mm | - | 62 W/m² | - |
| 1777937021 | 23.33° C | 54% | 1012.8 hPa | 0 mm | - | 36 W/m² | - |
| 1777936718 | 23.33° C | 52% | 1012.8 hPa | 0 mm | - | 38 W/m² | - |
| 1777936415 | 23.33° C | 52% | 1012.9 hPa | 0 mm | - | 50 W/m² | - |
| 1777936111 | 23.33° C | 53% | 1013 hPa | 0 mm | - | 45 W/m² | - |
| 1777935809 | 23.33° C | 53% | 1013 hPa | 0 mm | - | 39 W/m² | - |
| 1777935507 | 23.33° C | 51% | 1013 hPa | 0 mm | - | 37 W/m² | - |
| 1777935203 | 23.89° C | 52% | 1012.9 hPa | 0 mm | - | 45 W/m² | - |
| 1777934901 | 23.89° C | 52% | 1013.2 hPa | 0 mm | - | 46 W/m² | - |
| 1777934598 | 23.89° C | 51% | 1013.2 hPa | 0 mm | - | 50 W/m² | - |
| 1777934294 | 23.89° C | 51% | 1013.1 hPa | 0 mm | - | 52 W/m² | - |
| 1777933990 | 24.44° C | 52% | 1013 hPa | 0 mm | - | 79 W/m² | - |
| 1777933687 | 24.44° C | 52% | 1013 hPa | 0 mm | - | 79 W/m² | - |
| 1777933383 | 24.44° C | 49% | 1013.2 hPa | 0 mm | - | 68 W/m² | - |
| 1777933081 | 24.44° C | 50% | 1013.2 hPa | 0 mm | - | 67 W/m² | - |
* Rain latest hour (hover to see other rain measurements)
** Current wind speed in m/s (hover to see current wind gust speed)